Regional Weather Roundup
Issued by NWS

Home | Current Version | Previous Version | Graphics & Text | Print | Product List | Glossary On
Versions: 1 2 3 4 5 6 7 8 9 10 11 12 13 14 15 16 17 18 19 20 21 22 23 24 25 26 27 28 29 30 31 32 33 34 35 36 37 38 39 40 41 42 43 44 45 46 47 48 49 50
543
ASUS45 KCYS 191310
RWRWY

WYOMING REGIONAL WEATHER ROUNDUP
NATIONAL WEATHER SERVICE CHEYENNE WY
600 AM MST THU JAN 19 2017

NOTE:  "FAIR" INDICATES FEW OR NO CLOUDS BELOW 12,000 FEET
WITH NO SIGNIFICANT WEATHER AND/OR OBSTRUCTIONS TO VISIBILITY.

WYZ001-191400-
YELLOWSTONE NATIONAL PARK

CITY           SKY/WX    TMP DP  RH WIND       PRES   REMARKS
LK YELLOWSTONE   N/A     17  16  95 CALM      29.69F
W YELLOWSTONE  NOT AVBL

$$
WYZ002>013-054>058-071-098>099-191400-
NORTHERN WYOMING

CITY           SKY/WX    TMP DP  RH WIND       PRES   REMARKS
JACKSON        CLOUDY    12  12 100 CALM      29.72F
CODY           FAIR      37  17  44 SE5       29.57S WCI  33
GREYBULL       FAIR       7   3  84 E10       29.61F WCI  -8
WORLAND        FAIR      11   8  88 CALM      29.59F
SHERIDAN       FAIR      16  11  80 W7        29.51S WCI   6
BUFFALO        FAIR      34  17  50 W12       29.51F WCI  25
GILLETTE       FAIR      32  18  56 E5        29.53R WCI  27
HULETT         FAIR      28  18  64 MISG      29.53F
NEWCASTLE      FAIR      23  14  68 N7        29.58F WCI  15

$$
WYZ014>020-022>026-101>103-191400-
CENTRAL WYOMING

CITY           SKY/WX    TMP DP  RH WIND       PRES   REMARKS
BIG PINEY      FAIR      -1  -3  91 CALM      29.75S
PINEDALE       FAIR       0  -6  78 E3        29.74S
DUBOIS         NOT AVBL
LANDER         FAIR      10   6  84 NW7       29.65S WCI  -1
RIVERTON       FAIR       2  -2  83 NW3       29.67F
CASPER         FAIR      32  19  58 SW25      29.61F WCI  19
DOUGLAS        FAIR      28  17  63 NW3       29.59S

$$
WYZ021-027>030-104>119-191400-
SOUTHERN WYOMING

CITY           SKY/WX    TMP DP  RH WIND       PRES   REMARKS
EVANSTON       CLOUDY    27  12  53 SW6       29.71F WCI  20
ROCK SPRINGS   FAIR       5   1  83 NE6       29.75F WCI  -6
RAWLINS        FAIR      29  18  63 SW22G30   29.73F WCI  15
LARAMIE        FAIR      12   7  80 SW15      29.69F WCI  -4
CHEYENNE       FAIR      36  13  38 NW9       29.60S WCI  29
TORRINGTON     FAIR      28  17  63 CALM      29.57F

$$




USA.gov is the U.S. government's official web portal to all federal, state and local government web resources and services.